Tracking 29033 objects as of 22-Jun-2024
HD Live streaming from Space Station
objects crossing your sky now

STARLINK-30073

Track STARLINK-30073 now!
10-day predictions
STARLINK-30073 is classified as:


NORAD ID: 56840
Int'l Code: 2023-079T
Perigee: 565.3 km
Apogee: 567.1 km
Inclination: 43.0 °
Period: 95.8 minutes
Semi major axis: 6937 km
RCS: Unknown
Launch date: June 4, 2023
Source: United States (US)
Launch site: AIR FORCE EASTERN TEST RANGE (AFETR)
Your satellite tracking list
Your tracking list is empty




NASA's NSSDC Master Catalog

Two Line Element Set (TLE):
1 56840U 23079T   24173.62416109 -.00001537  00000-0 -98766-4 0  9998
2 56840  43.0018 256.4589 0001291 275.6165  84.4530 15.02529203 58854
Source of the keplerian elements: AFSPC